Other Public Products
Issued by NWS Grand Forks, ND

Home | Current Version | Previous Version | Graphics & Text | Print | Product List | Glossary On
Versions: 1 2 3 4 5 6 7 8 9 10 11 12 13 14 15 16 17 18 19 20 21 22 23 24 25 26 27 28 29 30 31 32 33 34 35 36 37 38 39 40 41 42 43 44 45 46 47 48 49 50
000
FPUS83 KFGF 281110
OPUFGF
PRAIRIE TO PINES WEATHER ROUNDUP
NATIONAL WEATHER SERVICE EASTERN NORTH DAKOTA/GRAND FORKS ND
500 AM CST FRI NOV 28 2014

 **SATELLITE DATA USED TO AUGMENT SKY COVER AT AUTOMATED STATIONS**
 *****  WEATHER ACROSS EASTERN NORTH DAKOTA  *****

CITY           SKY/WX    TMP DP  RH WIND       PRES   REMARKS
GRAND FORKS    CLOUDY    11   6  81 SE9       30.02R WCI  -2
GRAND FORKS AF CLOUDY    10   7  85 SE9       30.01F WCI  -2
GRAND CITY NWS   N/A     10 N/A N/A SE9         N/A  WCI  -2
BUXTON         NOT AVBL
DEVILS LAKE    CLOUDY     9  -2  61 SE12      29.91F WCI  -6
FARGO          CLOUDY    13   6  74 SE8       30.00F WCI   2
WAHPETON ARPT  PTSUNNY   10   3  72 SE14      29.98F WCI  -5
$$

 *****  WEATHER ACROSS CENTRAL AND WESTERN NORTH DAKOTA  *****

CITY           SKY/WX    TMP DP  RH WIND       PRES   REMARKS
JAMESTOWN      CLOUDY     7   3  84 SE9       29.89F WCI  -7
BISMARCK       CLOUDY    10   6  84 E9        29.82F FOG     WCI  -3
MINOT          CLOUDY     8   3  80 E12       29.84F WCI  -7
MINOT AFB      CLOUDY     9   5  85 E13       29.85F WCI  -7
GARRISON         N/A     11   8  88 E16       29.77F WCI  -6
WILLISTON      MOCLDY    18  13  80 E8        29.73R WCI   8
DICKINSON      CLOUDY    20  17  88 E8        29.66F WCI  10
HETTINGER      CLOUDY    33  27  78 VRB5      29.67F
$$

 *****  OTHER OBSERVATIONS NORTHEAST NORTH DAKOTA  *****

CITY           SKY/WX    TMP DP  RH WIND       PRES   REMARKS
WALHALLA       LGT SNOW   9   7  92 E3        30.03S
LANGDON        FLURRIES   7   1  78 SE13      29.93F WCI  -9
CAVALIER       LGT SNOW  10   7  85 SE6       30.03F WCI   1
GRAFTON        FLURRIES  10   7  85 E7        30.04S WCI   0
CANDO          LGT SNOW   9   5  85 SE9       29.94F WCI  -5
FORT TOTTEN    NOT AVBL
ROLLA          LGT SNOW   7   5  92 SE8       29.92S WCI  -6
RUGBY          CLOUDY     9   5  85 E14       29.89F WCI  -8
 ***** THE ABOVE OBSERVATIONS ARE NON NWS ARE NOT QUALITY
        CONTROLLED AND MAY MIS-REPORT RAIN FOR SNOW...
$$

 *****  OTHER OBSERVATIONS SOUTHEAST NORTH DAKOTA *****

CITY           SKY/WX    TMP DP  RH WIND       PRES   REMARKS
COOPERSTOWN    NOT AVBL
VALLEY CITY    CLOUDY     9   7  92 SE9       29.94R WCI  -5
OAKES            N/A      5   1  85 E13       29.89F WCI -12
GWINNER        PTSUNNY    9   3  78 E9        29.94S WCI  -5
SHEYENNE NWR     N/A      5   0  79 SE7       29.95S WCI  -7
BUFFALO        NOT AVBL
WYNDMERE         N/A      7   3  85 E9          N/A  WCI  -7
 ***** THE ABOVE OBSERVATIONS ARE NON NWS ARE NOT QUALITY
       CONTROLLED AND MAY MIS-REPORT RAIN FOR SNOW...
$$

  *****  WEATHER ACROSS NORTHERN MINNESOTA  *****

CITY           SKY/WX    TMP DP  RH WIND       PRES   REMARKS
FLAG ISLAND    PTCLDY     1  -2  85 E6        30.06F WCI -10
WARROAD        PTCLDY     7   1  78 E6        30.05F WCI  -3
ROSEAU         PTCLDY     9   1  72 E5        30.04F WCI   0
HALLOCK        FLURRIES  10   5  79 E7        30.04F WCI   0
THF RVR FALLS  CLOUDY    10   5  79 E10       30.01S WCI  -3
HALSTAD          N/A     12   7  80 SE7         N/A  WCI   1
FOSSTON        CLOUDY     9   3  78 E7        29.99F WCI  -3
BAUDETTE       MOCLDY     5  -2  72 E7        30.04F WCI  -7
WASKISH        FLURRIES   9   3  78 CALM      30.03F
CROOKSTON      CLOUDY    12   7  79 SE7       30.04R WCI   2
$$
  *****  WEATHER ACROSS CENTRAL AND WEST MINNESOTA  *****

CITY           SKY/WX    TMP DP  RH WIND       PRES   REMARKS
BEMIDJI        CLOUDY     8   3  82 SE9       30.01S WCI  -6
PARK RAPIDS    CLOUDY     8   4  83 E7        29.99F WCI  -3
WADENA         FLURRIES   7   1  78 SE8       30.00R WCI  -6
DETROIT LAKES  LGT SNOW  10   7  85 SE10      29.98F WCI  -3
MOORHEAD       MIX PCPN  12   9  85 SE9       30.00F WCI   0
FERGUS FALLS   CLOUDY    10   1  67 SE13      30.02F WCI  -5
ELBOW LAKE     CLOUDY    10   4  75 SE16      29.97F HAZE    WCI  -7
MORRIS MN      PTCLDY     7   1  78 SE10      29.96F WCI  -8
STAPLES        CLOUDY     7   3  85 SE6       30.01S WCI  -3
WHEATON        FAIR       5   0  78 E10       29.99F WCI -10
$$
  *****  WEATHER ELSEWHERE ACROSS MINNESOTA  *****

CITY           SKY/WX    TMP DP  RH WIND       PRES   REMARKS
DULUTH         LGT SNOW   6   1  80 SE6       30.08F WCI  -4
INTRNTL FALLS  CLOUDY     5  -2  72 SE5       30.07F WCI  -4
ELY            CLOUDY     5   0  78 S3        30.08F
CLOQUET        FLURRIES   7   1  78 E5        30.08F WCI  -2
BRAINERD       CLOUDY     8   4  83 SE3       30.04S
HIBBING        LGT SNOW   7   0  73 SE6       30.07F WCI  -3
ALEXANDRIA     CLOUDY     9   3  77 SE12      29.98S WCI  -6
SAINT CLOUD    CLOUDY    10   5  80 SE7       30.04S WCI  -1
MINNEAPOLIS    CLOUDY    11   7  84 SE9       30.07F WCI  -2
$$

  *****  WEATHER ACROSS SOUTH DAKOTA  *****

CITY           SKY/WX    TMP DP  RH WIND       PRES   REMARKS
SIOUX FALLS    CLOUDY    19  15  84 E5        29.87F WCI  12
BROOKINGS      NOT AVBL
WATERTOWN      CLEAR     13   9  84 SE9       29.84F WCI   1
HURON          MOCLDY    19  15  84 SE6       29.83F WCI  11
SISSETON         N/A      4   1  88 SE6       29.94F WCI  -7
ABERDEEN       PTCLDY    10   5  80 N5        29.88S WCI   2
MITCHELL       CLOUDY    22  17  81 SE8       29.84F WCI  12
PIERRE         CLOUDY    19  15  84 E3        29.75F
MOBRIDGE       CLOUDY    14   9  80 E9        29.75F WCI   2
RAPID CITY     PTCLDY    31  24  75 CALM      29.70F
$$

  *****  SOME WEATHER IN NEARBY STATES *****

CITY           SKY/WX    TMP DP  RH WIND       PRES   REMARKS
GLASGOW MT     PTCLDY    19  16  88 E12       29.63F WCI   7
GREAT FALLS MT MOCLDY    42  34  73 SW12      29.58F
CHEYENNE WY    MOCLDY    50  14  23 W10       30.00F
SCOTTSBLUFF NE PTCLDY    33  25  72 E6        29.86F
OMAHA NE       PTCLDY    28  22  78 S12       29.97F WCI  18
DES MOINES IA  PTCLDY    19  13  77 E9        30.06F WCI   8
DAVENPORT IA   MOCLDY    16   8  71 SE13      30.25F WCI   2
CHICAGO IL     FLURRIES  19  12  74 S5        30.32F WCI  12
EAU CLAIRE WI  LGT SNOW  10   5  80 E8        30.13F WCI  -2
LA CROSSE WI   CLOUDY    15   9  76 SE8       30.17F WCI   4
$$

  *****  SOME NATIONAL WEATHER *****

CITY           SKY/WX    TMP DP  RH WIND       PRES   REMARKS
LA GUARDIA NY  PTCLDY    32  23  69 NW14      30.10R WCI  22
RALEIGH NC     CLEAR     30  21  69 CALM      30.31R
ATLANTA GA     CLEAR     29  21  72 NW7       30.35F WCI  22
NEW ORLEANS LA CLEAR     44  34  67 E8        30.42S
OKLAHOMA CITY  PTCLDY    40  26  57 S12       30.14F
ALBUQUERQUE NM PTCLDY    38  21  50 CALM      30.29F
SALT LAKE CITY CLOUDY    46  24  42 E9        30.05F
LOS ANGELES CA CLEAR     57  40  52 E5        29.99S
BOISE ID       CLOUDY    45  37  73 E6        29.90F
SEATTLE WA     CLOUDY    54  49  83 S13G29    29.65F
$$

*** WEATHER ACROSS MANITOBA...SASKATCHEWAN AND ONTARIO ***
                ***ONTARIO***

CITY           SKY/WX    TMP DP  RH WIND       PRES   REMARKS
GERALDTON      PTCLDY   -18 -26  69 W2        30.11F
THUNDER BAY    MOCLDY    -4  -8  84 NW3       30.20F
SIOUX LOOKOUT  CLEAR    -11 -17  77 CALM      30.10S
TORONTO        PTCLDY    21  12  68 W10       30.23R WCI  10
BIG TROUT LK   FLURRIES  -9 -13  84 W8        30.04F WCI -26
PICKLE LAKE    CLOUDY    -8 -13  77 W9        30.05  WCI -25
DRYDEN         MOCLDY    -6  -9  84 CALM      30.08F
KENORA         CLOUDY    -2  -8  78 SE3       30.06F
$$
                *** MANITOBA***

CITY           SKY/WX    TMP DP  RH WIND       PRES   REMARKS
BRANDON        LGT SNOW   7   3  85 E18       29.98S WCI -12
DAUPHIN        FLURRIES   5   1  85 NE10      30.07F WCI -10
ISLAND LAKE    CLEAR    -15 -20  76 NW6       30.13F WCI -29
PILOT MOUND      N/A      7   3  85 E8          N/A  WCI  -6
THE PAS        CLEAR     -9 -15  77 NE5       30.16F WCI -21
THOMPSON       CLEAR    -27 -35  68 NW3       30.17F
WINNIPEG       PTCLDY     0  -6  78 E5        30.08F WCI -10
LYNN LAKE      CLEAR    -20 -26  76 W7        30.13F WCI -37
CHURCHILL      CRYSTALS -13 -18  77 NW17G26   30.06R BLWGSNOWWCI -38
GILLAM         CLEAR    -18 -26  69 W9        30.12S WCI -38
$$
                ***SASKATCHEWAN***

CITY           SKY/WX    TMP DP  RH WIND       PRES   REMARKS
ESTEVAN        LGT SNOW   9   3  78 E13G21    29.80F DRFTSNOWWCI  -7
KINDERSLEY     LGT SNOW   7   3  85 E21       29.65F DRFTSNOWWCI -13
LLOYDMINSTER   LGT SNOW  -2  -8  78 E18       29.80F VSB 3/4 WCI -24
PRINCE ALBERT  LGT SNOW  -2  -8  78 E17       29.99F WCI -24
REGINA         FLURRIES  10   7  85 E20       29.78F WCI  -8


USA.gov is the U.S. government's official web portal to all federal, state and local government web resources and services.